Simultaneous Nadir Overpasses (SNOs) Predictions

Prediction of SNOs between NOAA-20 and NOAA-19 Satellite Orbit:

Table of predicted SNOs for the next 14.0 days since TLE Epoch: 8/16/2019
Index Date (NOAA-20) Time (NOAA-20) Lat,Lon (NOAA-20) SZA (NOAA-20 ) Date (NOAA-19) Time (NOAA-19) Lat,Lon (NOAA-19) SZA (NOAA-19 ) Distance(km) Time Diff (sec)
1 08/22/2019 16:57:03 -79.93, 67.63 109.50 08/22/2019 16:55:48 -79.91, 67.37 109.46 5.76 75
2 08/22/2019 17:47:48 79.93,-125.00 70.50 08/22/2019 17:46:52 79.94,-125.02 70.54 1.22 56
3 08/22/2019 18:38:33 -79.94, 42.21 109.47 08/22/2019 18:37:48 -79.93, 42.11 109.45 2.34 45
4 08/22/2019 19:29:18 79.93,-150.42 70.53 08/22/2019 19:28:53 79.93,-150.59 70.57 3.16 25
5 08/22/2019 20:20:03 -79.94, 16.79 109.44 08/22/2019 20:19:48 -79.95, 16.84 109.44 1.10 15
6 08/22/2019 21:10:48 79.94,-175.84 70.57 08/22/2019 21:10:53 79.95,-175.85 70.58 1.71 5
7 08/22/2019 22:01:33 -79.95, -8.63 109.41 08/22/2019 22:01:49 -79.94, -8.73 109.41 2.06 16
8 08/22/2019 22:52:18 79.94, 158.74 70.60 08/22/2019 22:52:54 79.95, 158.58 70.60 3.09 36
9 08/22/2019 23:43:03 -79.95, -34.04 109.38 08/22/2019 23:43:49 -79.96, -33.99 109.40 1.40 46
10 08/23/2019 00:33:48 79.95, 133.32 70.63 08/23/2019 00:34:54 79.97, 133.32 70.61 2.20 66




NCC Satellite Simultaneous Nadir Overpasses (SNOs) Prediction Service
